Time,TemperatureF,DewpointF,PressureIn,WindDirection,WindDirectionDegrees,WindSpeedMPH,WindSpeedGustMPH,Humidity,HourlyPrecipIn,Conditions,Clouds,dailyrainin,SoftwareType,DateUTC
2013-05-09 00:01:00,56.3,54.6,29.94,WSW,246,10.0,12.0,94,0.00,,,0.00,VWS V12.08,2013-05-09 05:01:00,
2013-05-09 00:06:00,56.3,54.6,29.94,NNE,28,12.0,14.0,94,0.00,,,0.00,VWS V12.08,2013-05-09 05:06:00,
2013-05-09 00:11:00,56.3,54.6,29.94,NNE,22,8.0,15.0,94,0.00,,,0.00,VWS V12.08,2013-05-09 05:11:00,
2013-05-09 00:16:00,56.3,54.6,29.94,NNE,17,9.0,15.0,94,0.00,,,0.00,VWS V12.08,2013-05-09 05:16:00,
2013-05-09 00:21:00,56.4,54.7,29.93,NNE,16,11.0,18.0,94,0.00,,,0.00,VWS V12.08,2013-05-09 05:21:00,
2013-05-09 00:26:00,56.4,54.7,29.94,NNE,26,9.0,18.0,94,0.00,,,0.00,VWS V12.08,2013-05-09 05:26:00,
2013-05-09 00:31:00,56.5,54.8,29.94,North,11,13.0,13.0,94,0.00,,,0.00,VWS V12.08,2013-05-09 05:31:00,
2013-05-09 00:36:00,56.5,54.8,29.94,NNE,16,9.0,16.0,94,0.00,,,0.00,VWS V12.08,2013-05-09 05:36:00,
2013-05-09 00:41:00,56.5,54.8,29.94,NNW,348,11.0,16.0,94,0.00,,,0.00,VWS V12.08,2013-05-09 05:41:00,
2013-05-09 00:46:00,56.5,54.5,29.94,North,350,6.0,16.0,93,0.00,,,0.00,VWS V12.08,2013-05-09 05:46:00,
2013-05-09 00:51:00,56.5,54.5,29.94,NNE,28,9.0,16.0,93,0.00,,,0.00,VWS V12.08,2013-05-09 05:51:00,
2013-05-09 00:56:00,56.5,54.5,29.94,NNE,13,3.0,16.0,93,0.00,,,0.00,VWS V12.08,2013-05-09 05:56:00,
2013-05-09 01:01:00,56.5,54.8,29.94,NNE,19,12.0,12.0,94,0.00,,,0.00,VWS V12.08,2013-05-09 06:01:00,
2013-05-09 01:06:00,56.4,54.7,29.94,NE,34,8.0,14.0,94,0.00,,,0.00,VWS V12.08,2013-05-09 06:06:00,
2013-05-09 01:11:00,56.3,54.6,29.94,NE,51,9.0,14.0,94,0.00,,,0.00,VWS V12.08,2013-05-09 06:11:00,
2013-05-09 01:16:00,56.3,54.6,29.94,NNE,22,7.0,14.0,94,0.00,,,0.00,VWS V12.08,2013-05-09 06:16:00,
2013-05-09 01:21:00,56.2,54.5,29.94,WNW,282,2.0,14.0,94,0.00,,,0.00,VWS V12.08,2013-05-09 06:21:00,
2013-05-09 01:26:00,56.1,54.4,29.94,NNE,32,9.0,14.0,94,0.00,,,0.00,VWS V12.08,2013-05-09 06:26:00,
2013-05-09 01:31:00,56.1,54.4,29.94,NNW,328,6.0,9.0,94,0.00,,,0.00,VWS V12.08,2013-05-09 06:31:00,
2013-05-09 01:36:00,56.0,54.3,29.93,NE,44,9.0,15.0,94,0.00,,,0.00,VWS V12.08,2013-05-09 06:36:00,
2013-05-09 01:41:00,56.0,54.3,29.93,NNE,31,8.0,16.0,94,0.00,,,0.00,VWS V12.08,2013-05-09 06:41:00,
2013-05-09 01:46:00,56.0,54.3,29.93,NNE,28,13.0,16.0,94,0.00,,,0.00,VWS V12.08,2013-05-09 06:46:00,
2013-05-09 01:51:00,55.9,54.2,29.93,NE,44,13.0,16.0,94,0.00,,,0.00,VWS V12.08,2013-05-09 06:51:00,
2013-05-09 01:56:00,55.9,54.5,29.93,NE,34,8.0,16.0,95,0.00,,,0.00,VWS V12.08,2013-05-09 06:56:00,
2013-05-09 02:01:00,55.8,54.4,29.93,West,273,5.0,11.0,95,0.00,,,0.00,VWS V12.08,2013-05-09 07:01:00,
2013-05-09 02:06:00,55.8,54.4,29.93,NE,38,11.0,16.0,95,0.00,,,0.00,VWS V12.08,2013-05-09 07:06:00,
2013-05-09 02:11:00,55.8,54.4,29.93,NNE,27,13.0,17.0,95,0.00,,,0.00,VWS V12.08,2013-05-09 07:11:00,
2013-05-09 02:16:00,55.8,54.4,29.93,NNE,13,14.0,17.0,95,0.00,,,0.00,VWS V12.08,2013-05-09 07:16:00,
2013-05-09 02:21:00,55.8,54.4,29.93,NE,44,10.0,17.0,95,0.00,,,0.00,VWS V12.08,2013-05-09 07:21:00,
2013-05-09 02:26:00,55.7,54.3,29.93,NE,43,8.0,17.0,95,0.00,,,0.00,VWS V12.08,2013-05-09 07:26:00,
2013-05-09 02:31:00,55.7,54.3,29.93,NNE,23,7.0,7.0,95,0.00,,,0.00,VWS V12.08,2013-05-09 07:31:00,
2013-05-09 02:36:00,55.7,54.3,29.92,NNE,26,10.0,17.0,95,0.00,,,0.00,VWS V12.08,2013-05-09 07:36:00,
2013-05-09 02:40:00,55.6,54.2,29.92,NE,55,9.0,17.0,95,0.00,,,0.00,VWS V12.08,2013-05-09 07:40:00,
2013-05-09 02:45:00,55.6,54.2,29.92,NE,43,9.0,17.0,95,0.00,,,0.00,VWS V12.08,2013-05-09 07:45:00,
2013-05-09 02:50:00,55.5,54.1,29.92,NE,43,11.0,17.0,95,0.00,,,0.00,VWS V12.08,2013-05-09 07:50:00,
2013-05-09 02:55:00,55.5,54.1,29.93,NW,304,3.0,17.0,95,0.00,,,0.00,VWS V12.08,2013-05-09 07:55:00,
2013-05-09 03:00:00,55.5,54.4,29.92,NNE,30,8.0,10.0,96,0.00,,,0.00,VWS V12.08,2013-05-09 08:00:00,
2013-05-09 03:05:00,55.5,54.4,29.93,NNE,15,5.0,14.0,96,0.00,,,0.00,VWS V12.08,2013-05-09 08:05:00,
2013-05-09 03:10:00,55.4,54.3,29.92,NNE,24,9.0,14.0,96,0.00,,,0.00,VWS V12.08,2013-05-09 08:10:00,
2013-05-09 03:15:00,55.4,54.3,29.92,NNW,328,4.0,14.0,96,0.00,,,0.00,VWS V12.08,2013-05-09 08:15:00,
2013-05-09 03:20:00,55.4,54.3,29.92,NE,35,7.0,14.0,96,0.00,,,0.00,VWS V12.08,2013-05-09 08:20:00,
2013-05-09 03:25:00,55.3,54.2,29.92,NE,38,3.0,14.0,96,0.00,,,0.00,VWS V12.08,2013-05-09 08:25:00,
2013-05-09 03:30:00,55.3,54.2,29.92,NNE,28,5.0,6.0,96,0.00,,,0.00,VWS V12.08,2013-05-09 08:30:00,
2013-05-09 03:35:00,55.3,54.2,29.92,NNE,20,5.0,13.0,96,0.00,,,0.00,VWS V12.08,2013-05-09 08:35:00,
2013-05-09 03:40:00,55.3,54.2,29.92,NW,312,5.0,13.0,96,0.00,,,0.00,VWS V12.08,2013-05-09 08:40:00,
2013-05-09 03:45:00,55.3,54.2,29.91,NW,325,4.0,14.0,96,0.00,,,0.00,VWS V12.08,2013-05-09 08:45:00,
2013-05-09 03:50:00,55.2,54.1,29.91,NNE,19,7.0,14.0,96,0.00,,,0.00,VWS V12.08,2013-05-09 08:50:00,
2013-05-09 03:55:00,55.1,54.0,29.91,NNW,338,7.0,14.0,96,0.00,,,0.00,VWS V12.08,2013-05-09 08:55:00,
2013-05-09 04:00:00,55.2,54.1,29.91,NNE,24,10.0,10.0,96,0.00,,,0.00,VWS V12.08,2013-05-09 09:00:00,
2013-05-09 04:05:00,55.2,54.1,29.90,NNW,339,7.0,13.0,96,0.00,,,0.00,VWS V12.08,2013-05-09 09:05:00,
2013-05-09 04:10:00,55.2,54.1,29.90,NE,50,11.0,15.0,96,0.00,,,0.00,VWS V12.08,2013-05-09 09:10:00,
2013-05-09 04:15:00,55.3,54.2,29.91,NNE,18,10.0,18.0,96,0.00,,,0.00,VWS V12.08,2013-05-09 09:15:00,
2013-05-09 04:20:00,55.3,54.2,29.91,North,350,11.0,18.0,96,0.00,,,0.00,VWS V12.08,2013-05-09 09:20:00,
2013-05-09 04:25:00,55.3,54.2,29.91,NE,41,6.0,18.0,96,0.00,,,0.00,VWS V12.08,2013-05-09 09:25:00,
2013-05-09 04:30:00,55.3,54.2,29.91,NNW,345,14.0,18.0,96,0.00,,,0.00,VWS V12.08,2013-05-09 09:30:00,
2013-05-09 04:35:00,55.3,54.2,29.91,NNE,15,5.0,16.0,96,0.00,,,0.00,VWS V12.08,2013-05-09 09:35:00,
2013-05-09 04:40:00,55.3,54.2,29.91,NNW,336,1.0,16.0,96,0.00,,,0.00,VWS V12.08,2013-05-09 09:40:00,
2013-05-09 04:45:00,55.2,54.1,29.91,NNW,327,3.0,17.0,96,0.00,,,0.00,VWS V12.08,2013-05-09 09:45:00,
2013-05-09 04:50:00,55.2,54.1,29.91,NE,38,4.0,17.0,96,0.00,,,0.00,VWS V12.08,2013-05-09 09:50:00,
2013-05-09 04:55:00,55.2,54.1,29.91,NNW,341,7.0,17.0,96,0.00,,,0.00,VWS V12.08,2013-05-09 09:55:00,
2013-05-09 05:00:00,55.2,54.1,29.91,East,82,13.0,17.0,96,0.00,,,0.00,VWS V12.08,2013-05-09 10:00:00,
2013-05-09 05:05:00,55.2,54.1,29.90,NNW,328,10.0,17.0,96,0.00,,,0.00,VWS V12.08,2013-05-09 10:05:00,
2013-05-09 05:10:00,55.2,53.8,29.91,NNE,24,13.0,17.0,95,0.00,,,0.00,VWS V12.08,2013-05-09 10:10:00,
2013-05-09 05:15:00,55.3,53.9,29.91,NE,35,15.0,17.0,95,0.00,,,0.00,VWS V12.08,2013-05-09 10:15:00,
2013-05-09 05:20:00,55.3,53.9,29.91,NNE,32,10.0,17.0,95,0.00,,,0.00,VWS V12.08,2013-05-09 10:20:00,
2013-05-09 05:25:00,55.3,53.9,29.90,NNE,32,13.0,18.0,95,0.00,,,0.00,VWS V12.08,2013-05-09 10:25:00,
2013-05-09 05:30:00,55.3,53.9,29.90,NNE,22,11.0,18.0,95,0.00,,,0.00,VWS V12.08,2013-05-09 10:30:00,
2013-05-09 05:35:00,55.3,53.9,29.90,WSW,244,11.0,15.0,95,0.00,,,0.00,VWS V12.08,2013-05-09 10:35:00,
2013-05-09 05:40:00,55.4,54.0,29.90,NNE,26,12.0,15.0,95,0.00,,,0.00,VWS V12.08,2013-05-09 10:40:00,
2013-05-09 05:45:00,55.4,54.0,29.90,NE,54,12.0,18.0,95,0.00,,,0.00,VWS V12.08,2013-05-09 10:45:00,
2013-05-09 05:50:00,55.3,53.9,29.90,NNE,31,12.0,19.0,95,0.00,,,0.00,VWS V12.08,2013-05-09 10:50:00,
2013-05-09 05:55:00,55.3,53.9,29.90,NNE,13,14.0,19.0,95,0.00,,,0.00,VWS V12.08,2013-05-09 10:55:00,
2013-05-09 06:00:00,55.2,53.8,29.91,NNW,343,5.0,19.0,95,0.00,,,0.00,VWS V12.08,2013-05-09 11:00:00,
2013-05-09 06:05:00,55.1,53.7,29.91,NNE,22,11.0,17.0,95,0.00,,,0.00,VWS V12.08,2013-05-09 11:05:00,
2013-05-09 06:10:00,55.1,53.7,29.91,ENE,62,8.0,17.0,95,0.00,,,0.00,VWS V12.08,2013-05-09 11:10:00,
2013-05-09 06:15:00,55.1,53.7,29.91,NNE,32,11.0,17.0,95,0.00,,,0.00,VWS V12.08,2013-05-09 11:15:00,
2013-05-09 06:20:00,55.1,53.7,29.92,WSW,252,10.0,17.0,95,0.00,,,0.00,VWS V12.08,2013-05-09 11:20:00,
2013-05-09 06:25:00,55.1,53.7,29.92,NNE,20,8.0,19.0,95,0.00,,,0.00,VWS V12.08,2013-05-09 11:25:00,
2013-05-09 06:30:00,55.1,53.7,29.92,NNE,13,11.0,19.0,95,0.00,,,0.00,VWS V12.08,2013-05-09 11:30:00,
2013-05-09 06:35:00,55.1,53.7,29.92,NNE,22,13.0,16.0,95,0.00,,,0.00,VWS V12.08,2013-05-09 11:35:00,
2013-05-09 06:40:00,55.1,53.7,29.92,NE,38,17.0,19.0,95,0.00,,,0.00,VWS V12.08,2013-05-09 11:40:00,
2013-05-09 06:45:00,55.0,53.6,29.92,NNE,30,7.0,20.0,95,0.00,,,0.00,VWS V12.08,2013-05-09 11:45:00,
2013-05-09 06:50:00,55.0,53.9,29.92,NE,47,11.0,20.0,96,0.00,,,0.00,VWS V12.08,2013-05-09 11:50:00,
2013-05-09 06:55:00,55.0,53.9,29.92,NE,35,18.0,20.0,96,0.00,,,0.00,VWS V12.08,2013-05-09 11:55:00,
2013-05-09 07:00:00,55.0,53.9,29.92,NE,46,11.0,20.0,96,0.00,,,0.00,VWS V12.08,2013-05-09 12:00:00,
2013-05-09 07:05:00,55.0,53.6,29.92,ENE,76,5.0,17.0,95,0.00,,,0.00,VWS V12.08,2013-05-09 12:05:00,
2013-05-09 07:10:00,55.1,53.7,29.93,NNE,23,16.0,19.0,95,0.00,,,0.00,VWS V12.08,2013-05-09 12:10:00,
2013-05-09 07:15:00,54.9,53.5,29.93,NE,38,11.0,19.0,95,0.00,,,0.00,VWS V12.08,2013-05-09 12:15:00,
2013-05-09 07:20:00,54.9,53.5,29.93,NE,51,10.0,19.0,95,0.00,,,0.00,VWS V12.08,2013-05-09 12:20:00,
2013-05-09 07:25:00,54.9,53.5,29.93,NNE,23,12.0,19.0,95,0.00,,,0.01,VWS V12.08,2013-05-09 12:25:00,
2013-05-09 07:30:00,54.9,53.5,29.93,West,260,4.0,19.0,95,0.01,,,0.01,VWS V12.08,2013-05-09 12:30:00,
2013-05-09 07:35:00,54.8,53.4,29.94,NNW,331,8.0,20.0,95,0.01,,,0.01,VWS V12.08,2013-05-09 12:35:00,
2013-05-09 07:40:00,54.9,53.5,29.94,NE,34,15.0,20.0,95,0.01,,,0.01,VWS V12.08,2013-05-09 12:40:00,
2013-05-09 07:45:00,54.9,53.5,29.94,NNE,19,13.0,20.0,95,0.01,,,0.01,VWS V12.08,2013-05-09 12:45:00,
2013-05-09 07:50:00,54.9,53.5,29.94,NE,51,14.0,20.0,95,0.01,,,0.01,VWS V12.08,2013-05-09 12:50:00,
2013-05-09 07:55:00,54.9,53.5,29.94,NNW,333,7.0,22.0,95,0.01,,,0.01,VWS V12.08,2013-05-09 12:55:00,
2013-05-09 08:00:00,54.9,53.5,29.94,NE,35,12.0,22.0,95,0.01,,,0.01,VWS V12.08,2013-05-09 13:00:00,
2013-05-09 08:05:00,54.9,53.5,29.94,NE,46,13.0,19.0,95,0.01,,,0.01,VWS V12.08,2013-05-09 13:05:00,
2013-05-09 08:10:00,55.0,53.6,29.94,NE,44,16.0,21.0,95,0.01,,,0.01,VWS V12.08,2013-05-09 13:10:00,
2013-05-09 08:15:00,55.1,53.4,29.94,East,88,13.0,22.0,94,0.01,,,0.01,VWS V12.08,2013-05-09 13:15:00,
2013-05-09 08:20:00,55.1,53.4,29.94,NNE,22,20.0,22.0,94,0.01,,,0.01,VWS V12.08,2013-05-09 13:20:00,
2013-05-09 08:25:00,55.2,53.5,29.94,NE,38,18.0,22.0,94,0.01,,,0.01,VWS V12.08,2013-05-09 13:25:00,
2013-05-09 08:30:00,55.3,53.6,29.94,NNE,27,13.0,22.0,94,0.01,,,0.01,VWS V12.08,2013-05-09 13:30:00,
2013-05-09 08:35:00,55.3,53.6,29.94,NE,38,17.0,20.0,94,0.00,,,0.01,VWS V12.08,2013-05-09 13:35:00,
2013-05-09 08:40:00,55.3,53.3,29.94,NE,40,18.0,23.0,93,0.00,,,0.01,VWS V12.08,2013-05-09 13:40:00,
2013-05-09 08:45:00,55.4,53.4,29.94,NNE,24,17.0,26.0,93,0.00,,,0.01,VWS V12.08,2013-05-09 13:45:00,
2013-05-09 08:50:00,55.4,53.4,29.94,NNW,338,14.0,26.0,93,0.00,,,0.01,VWS V12.08,2013-05-09 13:50:00,
2013-05-09 08:55:00,55.5,53.5,29.95,West,268,7.0,26.0,93,0.00,,,0.01,VWS V12.08,2013-05-09 13:55:00,
2013-05-09 09:00:00,55.5,53.5,29.95,North,351,19.0,26.0,93,0.00,,,0.01,VWS V12.08,2013-05-09 14:00:00,
2013-05-09 09:05:00,55.5,53.2,29.95,NE,38,18.0,25.0,92,0.00,,,0.01,VWS V12.08,2013-05-09 14:05:00,
2013-05-09 09:10:00,55.6,53.6,29.95,NNE,16,19.0,25.0,93,0.00,,,0.01,VWS V12.08,2013-05-09 14:10:00,
2013-05-09 09:15:00,55.6,53.6,29.95,NE,40,13.0,25.0,93,0.00,,,0.01,VWS V12.08,2013-05-09 14:15:00,
2013-05-09 09:20:00,55.6,53.6,29.95,NNE,22,15.0,25.0,93,0.00,,,0.01,VWS V12.08,2013-05-09 14:20:00,
2013-05-09 09:25:00,55.6,53.6,29.95,NNE,13,24.0,25.0,93,0.00,,,0.01,VWS V12.08,2013-05-09 14:25:00,
2013-05-09 09:30:00,55.6,53.6,29.95,NW,310,10.0,25.0,93,0.00,,,0.01,VWS V12.08,2013-05-09 14:30:00,
2013-05-09 09:35:00,55.5,53.5,29.95,NNE,28,17.0,22.0,93,0.00,,,0.01,VWS V12.08,2013-05-09 14:35:00,
2013-05-09 09:40:00,55.5,53.5,29.95,ESE,121,9.0,24.0,93,0.00,,,0.01,VWS V12.08,2013-05-09 14:40:00,
2013-05-09 09:45:00,55.5,53.5,29.96,NNE,30,14.0,24.0,93,0.00,,,0.01,VWS V12.08,2013-05-09 14:45:00,
2013-05-09 09:50:00,55.4,53.4,29.96,NE,40,10.0,24.0,93,0.00,,,0.01,VWS V12.08,2013-05-09 14:50:00,
2013-05-09 09:55:00,55.3,53.3,29.96,NW,314,12.0,24.0,93,0.00,,,0.01,VWS V12.08,2013-05-09 14:55:00,
2013-05-09 10:00:00,55.1,53.4,29.96,NNE,27,14.0,24.0,94,0.00,,,0.01,VWS V12.08,2013-05-09 15:00:00,
2013-05-09 10:05:00,55.0,53.3,29.96,NNE,24,10.0,24.0,94,0.00,,,0.01,VWS V12.08,2013-05-09 15:05:00,
2013-05-09 10:10:00,54.9,53.2,29.96,NNE,25,6.0,24.0,94,0.00,,,0.01,VWS V12.08,2013-05-09 15:10:00,
2013-05-09 10:15:00,54.9,53.2,29.96,NNE,32,15.0,24.0,94,0.00,,,0.01,VWS V12.08,2013-05-09 15:15:00,
2013-05-09 10:20:00,55.0,53.3,29.96,NNE,28,13.0,24.0,94,0.00,,,0.01,VWS V12.08,2013-05-09 15:20:00,
2013-05-09 10:25:00,55.1,53.4,29.96,NNW,344,14.0,24.0,94,0.00,,,0.01,VWS V12.08,2013-05-09 15:25:00,
2013-05-09 10:30:00,55.3,53.3,29.96,NE,34,17.0,26.0,93,0.00,,,0.01,VWS V12.08,2013-05-09 15:30:00,
2013-05-09 10:35:00,55.5,53.5,29.96,NNE,22,14.0,25.0,93,0.01,,,0.02,VWS V12.08,2013-05-09 15:35:00,
2013-05-09 10:40:00,55.5,53.5,29.96,NNW,327,11.0,25.0,93,0.01,,,0.02,VWS V12.08,2013-05-09 15:40:00,
2013-05-09 10:45:00,55.5,53.5,29.97,NNE,17,17.0,25.0,93,0.01,,,0.02,VWS V12.08,2013-05-09 15:45:00,
2013-05-09 10:50:00,55.2,53.2,29.97,NE,40,16.0,25.0,93,0.01,,,0.02,VWS V12.08,2013-05-09 15:50:00,
2013-05-09 10:55:00,54.9,52.9,29.97,North,360,11.0,25.0,93,0.01,,,0.02,VWS V12.08,2013-05-09 15:55:00,
2013-05-09 11:00:00,54.7,53.0,29.98,NNW,348,13.0,25.0,94,0.01,,,0.02,VWS V12.08,2013-05-09 16:00:00,
2013-05-09 11:05:00,54.2,52.5,29.98,NNE,31,28.0,29.0,94,0.01,,,0.03,VWS V12.08,2013-05-09 16:05:00,
2013-05-09 11:10:00,54.0,52.3,29.98,NNE,26,14.0,29.0,94,0.02,,,0.03,VWS V12.08,2013-05-09 16:10:00,
2013-05-09 11:15:00,54.0,52.3,29.98,NNE,28,15.0,29.0,94,0.02,,,0.03,VWS V12.08,2013-05-09 16:15:00,
2013-05-09 11:20:00,53.9,52.2,29.98,NNE,27,13.0,29.0,94,0.02,,,0.03,VWS V12.08,2013-05-09 16:20:00,
2013-05-09 11:25:00,53.8,52.4,29.98,NNE,29,18.0,29.0,95,0.02,,,0.03,VWS V12.08,2013-05-09 16:25:00,
2013-05-09 11:30:00,53.8,52.4,29.98,NNE,22,16.0,29.0,95,0.03,,,0.04,VWS V12.08,2013-05-09 16:30:00,
2013-05-09 11:35:00,53.9,52.5,29.98,NNE,15,15.0,25.0,95,0.03,,,0.04,VWS V12.08,2013-05-09 16:35:00,
2013-05-09 11:40:00,53.9,52.5,29.98,NNE,13,18.0,29.0,95,0.03,,,0.04,VWS V12.08,2013-05-09 16:40:00,
2013-05-09 11:45:00,53.9,52.5,29.98,NNW,348,14.0,29.0,95,0.03,,,0.04,VWS V12.08,2013-05-09 16:45:00,
2013-05-09 11:50:00,53.9,52.5,29.98,NE,35,3.0,29.0,95,0.03,,,0.04,VWS V12.08,2013-05-09 16:50:00,
2013-05-09 11:55:00,54.1,52.7,29.98,NNE,31,14.0,29.0,95,0.03,,,0.04,VWS V12.08,2013-05-09 16:55:00,
2013-05-09 12:00:00,54.1,52.7,29.98,NNE,15,18.0,29.0,95,0.03,,,0.04,VWS V12.08,2013-05-09 17:00:00,
2013-05-09 12:05:00,54.3,52.9,29.98,NE,35,16.0,25.0,95,0.02,,,0.04,VWS V12.08,2013-05-09 17:05:00,
2013-05-09 12:10:00,54.6,53.2,29.98,NE,50,9.0,25.0,95,0.02,,,0.04,VWS V12.08,2013-05-09 17:10:00,
2013-05-09 12:15:00,54.9,53.5,29.98,North,5,12.0,27.0,95,0.03,,,0.05,VWS V12.08,2013-05-09 17:15:00,
2013-05-09 12:20:00,55.0,53.3,29.98,NE,34,20.0,27.0,94,0.03,,,0.05,VWS V12.08,2013-05-09 17:20:00,
2013-05-09 12:25:00,55.1,53.1,29.98,NNE,18,18.0,28.0,93,0.03,,,0.05,VWS V12.08,2013-05-09 17:25:00,
2013-05-09 12:30:00,55.3,53.6,29.98,NE,38,20.0,28.0,94,0.03,,,0.05,VWS V12.08,2013-05-09 17:30:00,
2013-05-09 12:35:00,55.4,53.4,29.98,NNE,31,15.0,26.0,93,0.01,,,0.05,VWS V12.08,2013-05-09 17:35:00,
2013-05-09 12:40:00,55.4,53.4,29.98,NE,43,22.0,29.0,93,0.01,,,0.05,VWS V12.08,2013-05-09 17:40:00,
2013-05-09 12:45:00,55.3,53.0,29.98,NNE,24,22.0,29.0,92,0.02,,,0.06,VWS V12.08,2013-05-09 17:45:00,
2013-05-09 12:50:00,55.4,53.1,29.98,NNW,340,20.0,29.0,92,0.02,,,0.06,VWS V12.08,2013-05-09 17:50:00,
2013-05-09 12:55:00,55.5,53.2,29.98,NNW,341,16.0,29.0,92,0.02,,,0.06,VWS V12.08,2013-05-09 17:55:00,
2013-05-09 13:00:00,55.5,52.9,29.98,NNW,341,20.0,29.0,91,0.02,,,0.06,VWS V12.08,2013-05-09 18:00:00,
2013-05-09 13:05:00,55.6,53.0,29.98,North,351,21.0,26.0,91,0.02,,,0.06,VWS V12.08,2013-05-09 18:05:00,
2013-05-09 13:10:00,55.8,53.2,29.98,NNE,28,19.0,27.0,91,0.02,,,0.06,VWS V12.08,2013-05-09 18:10:00,
2013-05-09 13:15:00,56.0,53.4,29.98,North,5,13.0,31.0,91,0.02,,,0.06,VWS V12.08,2013-05-09 18:15:00,
2013-05-09 13:20:00,56.2,53.6,29.98,NNE,13,21.0,31.0,91,0.02,,,0.06,VWS V12.08,2013-05-09 18:20:00,
2013-05-09 13:25:00,56.3,53.4,29.98,NNE,31,19.0,31.0,90,0.02,,,0.06,VWS V12.08,2013-05-09 18:25:00,
2013-05-09 13:30:00,56.4,53.2,29.98,NNW,336,20.0,31.0,89,0.02,,,0.06,VWS V12.08,2013-05-09 18:30:00,
2013-05-09 13:35:00,56.5,53.6,29.98,WNW,301,9.0,29.0,90,0.01,,,0.06,VWS V12.08,2013-05-09 18:35:00,
2013-05-09 13:40:00,56.7,53.5,29.98,NNE,30,17.0,29.0,89,0.01,,,0.06,VWS V12.08,2013-05-09 18:40:00,
2013-05-09 13:45:00,57.0,53.8,29.98,NNE,30,17.0,29.0,89,0.01,,,0.06,VWS V12.08,2013-05-09 18:45:00,
2013-05-09 13:50:00,57.2,53.4,29.97,NE,49,27.0,30.0,87,0.01,,,0.06,VWS V12.08,2013-05-09 18:50:00,
2013-05-09 13:55:00,57.3,53.5,29.97,NNW,345,19.0,30.0,87,0.01,,,0.06,VWS V12.08,2013-05-09 18:55:00,
2013-05-09 14:00:00,57.4,53.9,29.98,NE,43,20.0,30.0,88,0.01,,,0.06,VWS V12.08,2013-05-09 19:00:00,
2013-05-09 14:05:00,57.5,53.7,29.98,NW,318,13.0,32.0,87,0.00,,,0.06,VWS V12.08,2013-05-09 19:05:00,
2013-05-09 14:10:00,57.8,53.7,29.98,NE,51,23.0,32.0,86,0.00,,,0.06,VWS V12.08,2013-05-09 19:10:00,
2013-05-09 14:15:00,58.0,53.8,29.98,NE,49,16.0,32.0,86,0.00,,,0.06,VWS V12.08,2013-05-09 19:15:00,
2013-05-09 14:20:00,58.3,53.8,29.98,NNE,22,12.0,32.0,85,0.00,,,0.06,VWS V12.08,2013-05-09 19:20:00,
2013-05-09 14:25:00,58.5,54.3,29.98,NE,44,17.0,32.0,86,0.00,,,0.06,VWS V12.08,2013-05-09 19:25:00,
2013-05-09 14:30:00,58.4,53.9,29.98,NE,50,9.0,32.0,85,0.00,,,0.06,VWS V12.08,2013-05-09 19:30:00,
2013-05-09 14:35:00,58.2,53.7,29.98,ENE,61,17.0,29.0,85,0.00,,,0.06,VWS V12.08,2013-05-09 19:35:00,
2013-05-09 14:40:00,58.3,54.1,29.98,NNE,27,19.0,29.0,86,0.00,,,0.06,VWS V12.08,2013-05-09 19:40:00,
2013-05-09 14:45:00,58.6,54.1,29.98,NNE,32,15.0,29.0,85,0.00,,,0.06,VWS V12.08,2013-05-09 19:45:00,
2013-05-09 14:50:00,58.8,54.0,29.98,NNW,344,19.0,29.0,84,0.00,,,0.06,VWS V12.08,2013-05-09 19:50:00,
2013-05-09 14:55:00,59.2,54.0,29.98,NE,38,17.0,29.0,83,0.00,,,0.06,VWS V12.08,2013-05-09 19:55:00,
2013-05-09 15:00:00,59.5,54.7,29.98,NE,55,13.0,29.0,84,0.00,,,0.06,VWS V12.08,2013-05-09 20:00:00,
2013-05-09 15:05:00,59.9,54.7,29.98,NNE,13,23.0,24.0,83,0.00,,,0.06,VWS V12.08,2013-05-09 20:05:00,
2013-05-09 15:10:00,60.0,54.2,29.98,ENE,58,14.0,25.0,81,0.00,,,0.06,VWS V12.08,2013-05-09 20:10:00,
2013-05-09 15:15:00,60.2,54.7,29.98,NE,51,17.0,25.0,82,0.00,,,0.06,VWS V12.08,2013-05-09 20:15:00,
2013-05-09 15:20:00,60.4,54.5,29.98,NNE,27,21.0,25.0,81,0.00,,,0.06,VWS V12.08,2013-05-09 20:20:00,
2013-05-09 15:25:00,60.5,54.7,29.98,NE,34,21.0,30.0,81,0.00,,,0.06,VWS V12.08,2013-05-09 20:25:00,
2013-05-09 15:30:00,60.4,54.5,29.98,NNE,16,25.0,30.0,81,0.00,,,0.06,VWS V12.08,2013-05-09 20:30:00,
2013-05-09 15:35:00,60.0,54.2,29.98,NNE,27,19.0,27.0,81,0.00,,,0.06,VWS V12.08,2013-05-09 20:35:00,
2013-05-09 15:40:00,59.7,54.2,29.98,NE,55,17.0,27.0,82,0.00,,,0.06,VWS V12.08,2013-05-09 20:40:00,
2013-05-09 15:45:00,59.4,53.9,29.98,NE,40,13.0,27.0,82,0.00,,,0.06,VWS V12.08,2013-05-09 20:45:00,
2013-05-09 15:50:00,59.2,54.0,29.98,NE,44,13.0,27.0,83,0.00,,,0.06,VWS V12.08,2013-05-09 20:50:00,
2013-05-09 15:55:00,59.2,54.4,29.98,NE,34,15.0,27.0,84,0.00,,,0.06,VWS V12.08,2013-05-09 20:55:00,
2013-05-09 16:00:00,59.3,54.5,29.98,NNE,16,16.0,27.0,84,0.00,,,0.06,VWS V12.08,2013-05-09 21:00:00,
2013-05-09 16:05:00,59.5,54.3,29.98,NNE,26,19.0,26.0,83,0.00,,,0.06,VWS V12.08,2013-05-09 21:05:00,
2013-05-09 16:10:00,59.5,53.7,29.98,NNE,27,18.0,26.0,81,0.00,,,0.06,VWS V12.08,2013-05-09 21:10:00,
2013-05-09 16:15:00,59.7,54.2,29.98,NE,47,11.0,26.0,82,0.00,,,0.06,VWS V12.08,2013-05-09 21:15:00,
2013-05-09 16:20:00,59.6,54.1,29.98,NNE,27,15.0,27.0,82,0.00,,,0.06,VWS V12.08,2013-05-09 21:20:00,
2013-05-09 16:25:00,59.3,53.8,29.98,WNW,296,15.0,27.0,82,0.00,,,0.06,VWS V12.08,2013-05-09 21:25:00,
2013-05-09 16:30:00,59.2,54.0,29.98,NE,54,16.0,27.0,83,0.00,,,0.06,VWS V12.08,2013-05-09 21:30:00,
2013-05-09 16:35:00,59.1,54.0,29.98,NNE,19,13.0,22.0,83,0.00,,,0.06,VWS V12.08,2013-05-09 21:35:00,
2013-05-09 16:40:00,59.1,54.3,29.98,NE,38,15.0,22.0,84,0.00,,,0.06,VWS V12.08,2013-05-09 21:40:00,
2013-05-09 16:45:00,59.1,54.3,29.98,NNE,31,11.0,23.0,84,0.00,,,0.06,VWS V12.08,2013-05-09 21:45:00,
2013-05-09 16:50:00,59.2,54.4,29.99,NNE,22,10.0,23.0,84,0.00,,,0.06,VWS V12.08,2013-05-09 21:50:00,
2013-05-09 16:55:00,59.4,53.9,29.99,North,360,20.0,23.0,82,0.00,,,0.06,VWS V12.08,2013-05-09 21:55:00,
2013-05-09 17:00:00,59.3,53.8,29.99,SSW,196,11.0,26.0,82,0.00,,,0.06,VWS V12.08,2013-05-09 22:00:00,
2013-05-09 17:05:00,59.1,53.3,29.99,SE,126,18.0,26.0,81,0.00,,,0.06,VWS V12.08,2013-05-09 22:05:00,
2013-05-09 17:10:00,58.9,53.4,29.98,NW,311,11.0,26.0,82,0.00,,,0.06,VWS V12.08,2013-05-09 22:10:00,
2013-05-09 17:15:00,58.9,53.4,29.98,NNW,328,16.0,26.0,82,0.00,,,0.06,VWS V12.08,2013-05-09 22:15:00,
2013-05-09 17:20:00,59.0,53.5,29.98,NNE,32,15.0,26.0,82,0.00,,,0.06,VWS V12.08,2013-05-09 22:20:00,
2013-05-09 17:25:00,59.0,53.8,29.98,NNE,22,19.0,26.0,83,0.00,,,0.06,VWS V12.08,2013-05-09 22:25:00,
2013-05-09 17:30:00,59.0,53.5,29.98,NE,53,17.0,26.0,82,0.00,,,0.06,VWS V12.08,2013-05-09 22:30:00,
2013-05-09 17:35:00,59.0,53.8,29.98,NE,47,17.0,24.0,83,0.00,,,0.06,VWS V12.08,2013-05-09 22:35:00,
2013-05-09 17:40:00,59.1,53.6,29.98,North,351,10.0,26.0,82,0.00,,,0.06,VWS V12.08,2013-05-09 22:40:00,
2013-05-09 17:45:00,59.2,54.0,29.98,NNE,20,8.0,26.0,83,0.00,,,0.06,VWS V12.08,2013-05-09 22:45:00,
2013-05-09 17:50:00,59.3,53.8,29.98,NE,39,18.0,26.0,82,0.00,,,0.06,VWS V12.08,2013-05-09 22:50:00,
2013-05-09 17:55:00,59.1,53.6,29.98,NNE,26,14.0,26.0,82,0.00,,,0.06,VWS V12.08,2013-05-09 22:55:00,
2013-05-09 18:00:00,58.8,53.7,29.99,NNE,22,12.0,26.0,83,0.00,,,0.06,VWS V12.08,2013-05-09 23:00:00,
2013-05-09 18:05:00,58.6,53.8,29.99,ENE,58,11.0,23.0,84,0.00,,,0.06,VWS V12.08,2013-05-09 23:05:00,
2013-05-09 18:10:00,58.6,54.1,29.99,NE,48,12.0,23.0,85,0.00,,,0.06,VWS V12.08,2013-05-09 23:10:00,
2013-05-09 18:15:00,58.4,53.9,29.99,NNW,330,13.0,23.0,85,0.00,,,0.06,VWS V12.08,2013-05-09 23:15:00,
2013-05-09 18:20:00,58.4,53.6,29.99,NE,44,19.0,23.0,84,0.00,,,0.06,VWS V12.08,2013-05-09 23:20:00,
2013-05-09 18:25:00,58.5,53.4,29.99,NNE,23,15.0,23.0,83,0.00,,,0.06,VWS V12.08,2013-05-09 23:25:00,
2013-05-09 18:30:00,58.5,53.0,29.99,NE,38,16.0,23.0,82,0.00,,,0.06,VWS V12.08,2013-05-09 23:30:00,
2013-05-09 18:35:00,58.4,53.3,30.00,NE,35,13.0,18.0,83,0.00,,,0.06,VWS V12.08,2013-05-09 23:35:00,
2013-05-09 18:40:00,58.4,53.3,30.00,NNE,20,10.0,21.0,83,0.00,,,0.06,VWS V12.08,2013-05-09 23:40:00,
2013-05-09 18:45:00,58.5,53.4,30.00,NE,54,15.0,21.0,83,0.00,,,0.06,VWS V12.08,2013-05-09 23:45:00,
2013-05-09 18:50:00,58.4,53.6,30.00,WNW,295,5.0,21.0,84,0.00,,,0.06,VWS V12.08,2013-05-09 23:50:00,
2013-05-09 18:55:00,58.3,53.5,29.99,ENE,59,16.0,21.0,84,0.00,,,0.06,VWS V12.08,2013-05-09 23:55:00,
2013-05-09 19:00:00,58.3,53.8,30.00,NNE,15,17.0,21.0,85,0.00,,,0.06,VWS V12.08,2013-05-10 00:00:00,
2013-05-09 19:05:00,58.2,53.7,30.00,NNE,22,15.0,18.0,85,0.00,,,0.06,VWS V12.08,2013-05-10 00:05:00,
2013-05-09 19:10:00,57.9,53.4,30.00,NNE,18,19.0,21.0,85,0.00,,,0.06,VWS V12.08,2013-05-10 00:10:00,
2013-05-09 19:15:00,57.6,53.5,30.00,NE,49,7.0,21.0,86,0.00,,,0.06,VWS V12.08,2013-05-10 00:15:00,
2013-05-09 19:20:00,57.5,53.7,30.00,NNE,30,17.0,21.0,87,0.00,,,0.06,VWS V12.08,2013-05-10 00:20:00,
2013-05-09 19:25:00,57.4,53.6,30.00,ENE,61,12.0,21.0,87,0.00,,,0.06,VWS V12.08,2013-05-10 00:25:00,
2013-05-09 19:30:00,57.2,53.4,30.00,NE,40,7.0,21.0,87,0.00,,,0.06,VWS V12.08,2013-05-10 00:30:00,
2013-05-09 19:35:00,57.1,53.6,30.01,ENE,61,13.0,18.0,88,0.00,,,0.06,VWS V12.08,2013-05-10 00:35:00,
2013-05-09 19:40:00,57.0,53.5,30.01,NE,51,12.0,19.0,88,0.00,,,0.06,VWS V12.08,2013-05-10 00:40:00,
2013-05-09 19:45:00,56.8,53.0,30.01,NNE,26,19.0,20.0,87,0.00,,,0.06,VWS V12.08,2013-05-10 00:45:00,
2013-05-09 19:50:00,56.6,53.1,30.01,NNE,20,11.0,20.0,88,0.00,,,0.06,VWS V12.08,2013-05-10 00:50:00,
2013-05-09 19:55:00,56.3,52.8,30.02,NNE,27,13.0,20.0,88,0.00,,,0.06,VWS V12.08,2013-05-10 00:55:00,
2013-05-09 20:00:00,56.0,52.5,30.02,NE,42,15.0,20.0,88,0.00,,,0.06,VWS V12.08,2013-05-10 01:00:00,
2013-05-09 20:05:00,55.9,52.7,30.02,ENE,59,10.0,17.0,89,0.00,,,0.06,VWS V12.08,2013-05-10 01:05:00,
2013-05-09 20:10:00,55.8,52.6,30.02,NE,40,13.0,17.0,89,0.00,,,0.06,VWS V12.08,2013-05-10 01:10:00,
2013-05-09 20:15:00,55.7,52.2,30.03,NE,38,13.0,19.0,88,0.00,,,0.06,VWS V12.08,2013-05-10 01:15:00,
2013-05-09 20:20:00,55.6,52.1,30.03,NNE,22,13.0,19.0,88,0.00,,,0.06,VWS V12.08,2013-05-10 01:20:00,
2013-05-09 20:25:00,55.5,52.0,30.03,WNW,288,11.0,19.0,88,0.00,,,0.06,VWS V12.08,2013-05-10 01:25:00,
2013-05-09 20:30:00,55.5,52.0,30.03,NE,34,3.0,19.0,88,0.00,,,0.06,VWS V12.08,2013-05-10 01:30:00,
2013-05-09 20:35:00,55.4,52.2,30.03,NE,38,6.0,14.0,89,0.00,,,0.06,VWS V12.08,2013-05-10 01:35:00,
2013-05-09 20:40:00,55.4,52.2,30.04,NNE,15,9.0,16.0,89,0.00,,,0.06,VWS V12.08,2013-05-10 01:40:00,
2013-05-09 20:45:00,55.2,52.0,30.04,NE,41,15.0,16.0,89,0.00,,,0.06,VWS V12.08,2013-05-10 01:45:00,
2013-05-09 20:50:00,55.1,51.9,30.03,NE,53,17.0,18.0,89,0.00,,,0.06,VWS V12.08,2013-05-10 01:50:00,
2013-05-09 20:55:00,54.9,51.7,30.03,NE,47,13.0,18.0,89,0.00,,,0.06,VWS V12.08,2013-05-10 01:55:00,
2013-05-09 21:00:00,54.7,51.5,30.04,West,272,6.0,18.0,89,0.00,,,0.06,VWS V12.08,2013-05-10 02:00:00,
2013-05-09 21:05:00,54.4,51.2,30.04,NE,35,14.0,20.0,89,0.00,,,0.06,VWS V12.08,2013-05-10 02:05:00,
2013-05-09 21:10:00,54.2,51.0,30.04,NNE,31,9.0,20.0,89,0.00,,,0.06,VWS V12.08,2013-05-10 02:10:00,
2013-05-09 21:15:00,54.1,51.2,30.04,NE,41,5.0,20.0,90,0.00,,,0.06,VWS V12.08,2013-05-10 02:15:00,
2013-05-09 21:20:00,53.9,50.7,30.05,NNE,32,11.0,20.0,89,0.00,,,0.06,VWS V12.08,2013-05-10 02:20:00,
2013-05-09 21:25:00,53.7,50.5,30.05,NE,51,12.0,20.0,89,0.00,,,0.06,VWS V12.08,2013-05-10 02:25:00,
2013-05-09 21:30:00,53.5,50.3,30.05,NE,46,12.0,20.0,89,0.00,,,0.06,VWS V12.08,2013-05-10 02:30:00,
2013-05-09 21:35:00,53.3,50.2,30.05,NNE,20,6.0,16.0,89,0.00,,,0.06,VWS V12.08,2013-05-10 02:35:00,
2013-05-09 21:40:00,52.9,49.8,30.05,NNE,30,5.0,16.0,89,0.00,,,0.06,VWS V12.08,2013-05-10 02:40:00,
2013-05-09 21:45:00,52.8,50.0,30.05,ENE,61,12.0,16.0,90,0.00,,,0.06,VWS V12.08,2013-05-10 02:45:00,
2013-05-09 21:50:00,52.8,50.0,30.05,ENE,59,11.0,16.0,90,0.00,,,0.06,VWS V12.08,2013-05-10 02:50:00,
2013-05-09 21:55:00,52.9,50.0,30.05,NNE,26,5.0,16.0,90,0.00,,,0.06,VWS V12.08,2013-05-10 02:55:00,
2013-05-09 22:00:00,52.8,50.0,30.05,ENE,58,6.0,16.0,90,0.00,,,0.06,VWS V12.08,2013-05-10 03:00:00,
2013-05-09 22:05:00,52.7,49.8,30.05,NNE,23,9.0,13.0,90,0.00,,,0.06,VWS V12.08,2013-05-10 03:05:00,
2013-05-09 22:10:00,52.5,49.7,30.05,NNE,19,10.0,16.0,90,0.00,,,0.06,VWS V12.08,2013-05-10 03:10:00,
2013-05-09 22:15:00,52.5,49.7,30.05,WNW,299,6.0,18.0,90,0.00,,,0.06,VWS V12.08,2013-05-10 03:15:00,
2013-05-09 22:20:00,52.5,49.7,30.05,NNE,22,9.0,18.0,90,0.00,,,0.06,VWS V12.08,2013-05-10 03:20:00,
2013-05-09 22:25:00,52.4,49.6,30.05,NE,35,15.0,19.0,90,0.00,,,0.06,VWS V12.08,2013-05-10 03:25:00,
2013-05-09 22:30:00,52.3,49.5,30.06,NNW,348,19.0,19.0,90,0.00,,,0.06,VWS V12.08,2013-05-10 03:30:00,
2013-05-09 22:35:00,52.1,49.3,30.06,NNW,335,14.0,17.0,90,0.00,,,0.06,VWS V12.08,2013-05-10 03:35:00,
2013-05-09 22:40:00,52.0,49.2,30.06,NE,40,9.0,17.0,90,0.00,,,0.06,VWS V12.08,2013-05-10 03:40:00,
2013-05-09 22:45:00,51.8,49.0,30.06,ENE,57,14.0,20.0,90,0.00,,,0.06,VWS V12.08,2013-05-10 03:45:00,
2013-05-09 22:50:00,51.6,48.8,30.06,NE,46,10.0,20.0,90,0.00,,,0.06,VWS V12.08,2013-05-10 03:50:00,
2013-05-09 22:55:00,51.2,48.4,30.06,NE,35,13.0,20.0,90,0.00,,,0.06,VWS V12.08,2013-05-10 03:55:00,
2013-05-09 23:00:00,50.9,48.1,30.06,NE,50,13.0,20.0,90,0.00,,,0.06,VWS V12.08,2013-05-10 04:00:00,
2013-05-09 23:01:00,50.8,48.0,30.06,NNE,27,10.0,10.0,90,0.00,,,0.06,VWS V12.08,2013-05-10 04:01:00,
2013-05-09 23:06:00,50.5,48.0,30.06,NE,53,8.0,16.0,91,0.00,,,0.06,VWS V12.08,2013-05-10 04:06:00,
2013-05-09 23:11:00,50.2,47.7,30.06,NNW,341,4.0,16.0,91,0.00,,,0.06,VWS V12.08,2013-05-10 04:11:00,
2013-05-09 23:16:00,49.8,47.3,30.06,NNE,31,9.0,16.0,91,0.00,,,0.06,VWS V12.08,2013-05-10 04:16:00,
2013-05-09 23:21:00,49.3,46.8,30.06,NNW,339,8.0,16.0,91,0.00,,,0.06,VWS V12.08,2013-05-10 04:21:00,
2013-05-09 23:26:00,48.9,46.1,30.07,NNE,20,6.0,16.0,90,0.00,,,0.06,VWS V12.08,2013-05-10 04:26:00,
2013-05-09 23:31:00,48.5,46.0,30.07,NNW,344,7.0,11.0,91,0.00,,,0.06,VWS V12.08,2013-05-10 04:31:00,
2013-05-09 23:36:00,48.3,45.8,30.07,NW,326,5.0,17.0,91,0.00,,,0.06,VWS V12.08,2013-05-10 04:36:00,
2013-05-09 23:41:00,48.2,45.4,30.07,NW,323,6.0,17.0,90,0.00,,,0.06,VWS V12.08,2013-05-10 04:41:00,
2013-05-09 23:46:00,48.0,45.2,30.07,NE,35,10.0,17.0,90,0.00,,,0.06,VWS V12.08,2013-05-10 04:46:00,
2013-05-09 23:51:00,47.7,44.9,30.07,NNE,12,11.0,17.0,90,0.00,,,0.06,VWS V12.08,2013-05-10 04:51:00,
2013-05-09 23:56:00,47.5,44.7,30.07,NNW,346,10.0,18.0,90,0.00,,,0.06,VWS V12.08,2013-05-10 04:56:00,